Skip Page Navigation
NASA JPL Caltech
NASA Logo - Jet Propulsion Laboratory + View the NASA Portal
+ Center for Near-Earth Object Studies
JPL Home Earth Solar System Stars & Galaxies Technology
JPL Solar System Dynamics
BODIES ORBITS EPHEMERIDES TOOLS PHYSICAL DATA DISCOVERY FAQ SITE MAP
JPL Small-Body Database Browser
Search: [ help ]  
15183 (3074 T-1)
Classification: Main-belt Asteroid          SPK-ID: 2015183
Ephemeris | Orbit Diagram | Orbital Elements | Mission Design | Physical Parameters | Discovery Circumstances | Close-Approach Data ]

[ show orbit diagram ]
Orbital Elements at Epoch 2459000.5 (2020-May-31.0) TDB
Reference: JPL 18 (heliocentric ecliptic J2000)
 Element Value Uncertainty (1-sigma)   Units 
e .1400189873788598 9.6882e-08  
a 3.195359084846332 3.1461e-08 au
q 2.747948141474309 2.9577e-07 au
i 5.337423025094361 1.0184e-05 deg
node 359.3431773546129 5.2315e-05 deg
peri 157.1627720572379 5.8284e-05 deg
M 228.136702959451 2.7573e-05 deg
tp 2459764.686500339718
(2022-Jul-04.18650034)
0.00016687 TDB
period 2086.30563846512
5.71
3.0812e-05
8.436e-08
d
yr
n .1725538163549466 2.5484e-09 deg/d
Q 3.642770028218355 3.5866e-08 au
  Orbit Determination Parameters
   # obs. used (total)      560  
   data-arc span      17725 days (48.53 yr)  
   first obs. used      1971-03-25  
   last obs. used      2019-10-04  
   planetary ephem.      DE431  
   SB-pert. ephem.      SB431-N16  
   condition code      0  
   norm. resid. RMS      .59063  
   source      ORB  
   producer      Otto Matic  
   solution date      2019-Nov-07 03:54:32  

Additional Information
 Earth MOID = 1.75833 au 
 Jupiter MOID = 1.34441 au 
 T_jup = 3.174 
[ show covariance matrix ]

Ephemeris | Orbit Diagram | Orbital Elements | Mission Design | Physical Parameters | Discovery Circumstances | Close-Approach Data ]

Physical Parameter Table
Parameter Symbol Value Units Sigma Reference Notes
absolute magnitude H 14.5   n/a PDS3 (MPO 118)  
diameter diameter 5.513 km 0.112 urn:nasa:pds:neowise_diameters_albedos::2.0[mainbelt] (http://adsabs.harvard.edu/abs/2011ApJ...741...68M)  
geometric albedo albedo 0.092   0.012 urn:nasa:pds:neowise_diameters_albedos::2.0[mainbelt] (http://adsabs.harvard.edu/abs/2011ApJ...741...68M)  

15183 (3074 T-1)          Discovered 1971-Mar-26 by van Houten, C. J., van Houten-Groeneveld, I., Gehrels, T. at Palomar
Reference: 20000523/Numbers.arcLast Updated: 2004-04-19

[ hide close-approach data ]
Close-Approach Data   ...sorted by Date/Time (TDB)
Date/Time (TDB) Time Uncertainty
(days_HH:MM)
Body Nominal Distance (au) Minimum Distance (au) Maximum Distance (au) V-relative (km/s) V-infinity (km/s) JD (TDB) Time Uncertainty (minutes) Semi-major axis (km) Semi-minor axis (km) range-LOV angle (deg) N-sigma BP Orbit Ref. Reference Modified
1905-Apr-28 21:23 00:13 Jupiter 1.89167836837012 1.89167063086541 1.89168610586354 3.34723037632262 3.21067381068742 2416964.390880406 12.7084774120434 311.144504994929 54.3500577434194 -5.52177231294428 250567.408647346 T 18 CATAB v2.0f-lin.ifort 2019-Nov-07 03:54:36 2019-Nov-07 03:54
1916-Jun-14 19:44 00:11 Jupiter 1.6522697771618 1.65226381630824 1.65227573800691 2.55817044188802 2.34924508179619 2421029.321979547 10.6042714987166 255.517684842765 71.0918243441262 -45.3772726621569 436556.088711853 T 18 CATAB v2.0f-lin.ifort 2019-Nov-07 03:54:36 2019-Nov-07 03:54
1927-Sep-07 14:01 00:08 Jupiter 1.49402108028964 1.49401807177867 1.49402408879449 2.16911827712296 1.88975954792828 2425131.083733210 7.80252597067876 203.657840537753 70.3616745946645 -79.7372601182333 502201.220444803 T 18 CATAB v2.0f-lin.ifort 2019-Nov-07 03:54:36 2019-Nov-07 03:54
1939-Jan-05 18:45 00:05 Jupiter 1.44213215764273 1.44213125176514 1.44213306352058 2.00625977975446 1.68831201259513 2429269.280956342 5.47865650011339 339.364396037148 89.1575045921493 -85.3594119959837 860390.727258862 T 18 CATAB v2.0f-lin.ifort 2019-Nov-07 03:54:36 2019-Nov-07 03:54
1950-May-13 16:59 00:04 Jupiter 1.48209368041217 1.48209277900153 1.48209458182778 1.9509304104384 1.6319072890775 2433415.207331816 3.99626171448736 213.97864940901 98.3091563537729 -83.2849350443867 1185146.88205905 T 18 CATAB v2.0f-lin.ifort 2019-Nov-07 03:54:36 2019-Nov-07 03:54
1961-Aug-27 18:13 00:03 Jupiter 1.61642150363984 1.61642008360895 1.61642292367036 2.05336490116603 1.77996785970234 2437539.258923743 3.09746234579709 113.23416839808 61.5123701558243 -82.3417972430995 1444784.61539501 T 18 CATAB v2.0f-lin.ifort 2019-Nov-07 03:54:36 2019-Nov-07 03:54
1972-Nov-07 01:51 00:02 Jupiter 1.83065971059883 1.83065815161924 1.8306612695777 2.499883040299 2.3073883814285 2441628.577353355 2.39762568325684 98.4255043977055 47.8775426252668 75.8456496098868 1208932.15529981 T 18 CATAB v2.0f-lin.ifort 2019-Nov-07 03:54:36 2019-Nov-07 03:54
2095-Apr-03 10:50 00:04 Jupiter 1.81002979899764 1.81002767233034 1.8100319256637 2.84083353685617 2.67103240548269 2486335.951580021 3.82733536154262 81.0428136128641 51.9723358439386 -30.5609920718172 827697.566985401 T 18 CATAB v2.0f-lin.ifort 2019-Nov-07 03:54:36 2019-Nov-07 03:54
2106-May-28 16:28 00:04 Jupiter 1.58535608252301 1.58535434065455 1.58535782439138 2.2046572471809 1.9472944076814 2490408.185914985 4.29991901287038 142.866403835922 50.3077205233712 -71.1675836630824 1015422.06263715 T 18 CATAB v2.0f-lin.ifort 2019-Nov-07 03:54:36 2019-Nov-07 03:54
2117-Sep-03 08:02 00:05 Jupiter 1.45450510030575 1.4545042041364 1.45450599647468 2.00608304531989 1.69105910982052 2494523.834982067 4.94224640781797 341.206818672741 96.777690164798 87.2949967937754 999124.415786898 T 18 CATAB v2.0f-lin.ifort 2019-Nov-07 03:54:36 2019-Nov-07 03:54
2129-Jan-08 05:31 00:06 Jupiter 1.42242710393059 1.42242581285219 1.42242839514523 1.98502888647313 1.6581272065351 2498668.730049781 6.28965044213956 829.668691019567 98.1222750312747 89.556749626447 1135530.65199114 T 18 CATAB v2.0f-lin.ifort 2019-Nov-07 03:54:36 2019-Nov-07 03:54
2140-May-12 16:06 00:09 Jupiter 1.49193347849562 1.49192982395972 1.49193713307367 2.07218004815923 1.77720584192221 2502811.170978231 8.53933201978085 493.30067760284 87.4034396004968 -80.8524973708233 1677409.4166527 T 18 CATAB v2.0f-lin.ifort 2019-Nov-07 03:54:36 2019-Nov-07 03:54
2151-Aug-15 09:42 00:11 Jupiter 1.66263905590562 1.66263253541264 1.66264557638443 2.34356171269233 2.11503954305449 2506922.904207352 11.2523379365478 216.973540454746 81.809790238023 -13.7732749573326 367282.472413034 T 18 CATAB v2.0f-lin.ifort 2019-Nov-07 03:54:36 2019-Nov-07 03:54
2162-Oct-12 10:20 00:13 Jupiter 1.91161474498348 1.91160659780297 1.9116228921516 2.96363009015939 2.8101455363135 2510998.930369535 13.3441176561454 328.326350032626 78.0609760208092 17.1559241030387 339464.518399501 T 18 CATAB v2.0f-lin.ifort 2019-Nov-07 03:54:36 2019-Nov-07 03:54

Alternate Designations
 3074 T-1 = 1997 WV23 
Ephemeris | Orbit Diagram | Orbital Elements | Mission Design | Physical Parameters | Discovery Circumstances | Close-Approach Data ]
ABOUT SSD CREDITS/AWARDS PRIVACY/COPYRIGHT GLOSSARY LINKS
FirstGov 2020-Aug-14 06:52 UT
(server date/time)  
NASA Home Page
Site Manager:   Ryan S. Park
Webmaster  Alan B. Chamberlin